Montgomery, AL

6:24 AM CDT on September 20, 2017 (GMT -0500)
Montgomery Regional

Weather History for KMGM - July, 2013

Change the Weather History Date:

Sunday, July 28, 2013

  Actual Average Record
Temperature  
Mean Temperature 81 °F 82 °F  
Max Temperature 91 °F 92 °F 102 °F (1952)
Min Temperature 70 °F 72 °F 63 °F (1911)
Cooling Degree Days 16 17  
Month to date cooling degree days 422 470  
Year to date cooling degree days 1272 1228  
Since 1 June cooling degree days 913 889  
Growing Degree Days 30 (Base 50)    
Moisture  
Dew Point 71 °F    
Average Humidity 74    
Maximum Humidity 93    
Minimum Humidity 55    
Precipitation  
Precipitation 0.00 in 0.14 in 1.68 in (1893)
Month to date precipitation 8.26 4.80  
Year to date precipitation 37.82 32.31  
Sea Level Pressure  
Sea Level Pressure 29.97 in    
Wind  
Wind Speed 4 mph (East)    
Max Wind Speed 12 mph    
Max Gust Speed 14 mph    
Visibility 9 miles    
Events      
T = Trace of Precipitation, MM = Missing Value Source: NWS Daily Summary

Daily Weather History Graph

Daily Weather History Graph

Search for Another Location

Airport or City:

Trip Planner

Search our weather history database for the weather conditions in past years. The results will help you decide how hot, cold, wet, or windy it might be!

Date:

Astronomy

Jul. 28, 2013 Rise Set
Actual Time 5:57 AM CDT 7:45 PM CDT
Civil Twilight 5:30 AM CDT 8:12 PM CDT
Nautical Twilight 4:58 AM CDT 8:45 PM CDT
Astronomical Twilight 4:23 AM CDT 9:19 PM CDT
Moon 11:35 PM CDT (7/28) 12:12 PM CDT (7/28)
Length of Visible Light 14h 41m
Length of Day
13h 48m
Waning Gibbous, 60% of the Moon is Illuminated
Jul 28
Waning Gibbous
Jul 29
Last Quarter
Aug 6
New
Aug 14
First Quarter
Aug 20
Full

Hourly Weather History & Observations

Time (CDT) Temp. Heat Index Dew Point Humidity Pressure Visibility Wind Dir Wind Speed Gust Speed Precip Events Conditions
12:53 AM 71.1 °F - 68.0 °F 90% 29.94 in 8.0 mi East 3.5 mph - N/A   Clear
1:53 AM 71.1 °F - 68.0 °F 90% 29.94 in 8.0 mi Calm Calm - N/A   Partly Cloudy
2:53 AM 72.0 °F - 69.1 °F 91% 29.93 in 8.0 mi Calm Calm - N/A   Overcast
3:53 AM 72.0 °F - 69.1 °F 91% 29.94 in 8.0 mi Calm Calm - N/A   Overcast
4:53 AM 73.0 °F - 69.1 °F 87% 29.94 in 9.0 mi NNE 3.5 mph - N/A   Overcast
5:53 AM 72.0 °F - 69.1 °F 91% 29.95 in 7.0 mi East 4.6 mph - N/A   Overcast
6:53 AM 73.0 °F - 69.1 °F 87% 29.97 in 8.0 mi East 4.6 mph - N/A   Overcast
7:53 AM 75.0 °F - 71.1 °F 87% 29.98 in 8.0 mi East 4.6 mph - N/A   Overcast
8:24 AM 77.0 °F - 71.6 °F 83% 29.99 in 9.0 mi Variable 4.6 mph - N/A   Overcast
8:53 AM 78.1 °F - 72.0 °F 81% 29.97 in 10.0 mi East 3.5 mph - N/A   Scattered Clouds
9:53 AM 82.0 °F 86.7 °F 72.0 °F 71% 29.98 in 10.0 mi Calm Calm - N/A   Mostly Cloudy
10:02 AM 82.4 °F 87.2 °F 71.6 °F 70% 29.99 in 10.0 mi NNE 4.6 mph - N/A   Overcast
10:53 AM 84.0 °F 89.0 °F 71.1 °F 65% 29.99 in 10.0 mi Variable 3.5 mph - N/A   Overcast
11:15 AM 84.2 °F 89.6 °F 71.6 °F 66% 29.99 in 10.0 mi NNE 6.9 mph - N/A   Overcast
11:53 AM 84.9 °F 90.1 °F 71.1 °F 63% 29.98 in 10.0 mi NE 8.1 mph - N/A   Overcast
12:00 PM 84.2 °F 89.6 °F 71.6 °F 66% 29.99 in 10.0 mi NE 8.1 mph - N/A   Mostly Cloudy
12:53 PM 87.1 °F 92.8 °F 71.1 °F 59% 29.98 in 10.0 mi NNE 8.1 mph - N/A   Mostly Cloudy
1:53 PM 90.0 °F 96.4 °F 71.1 °F 54% 29.96 in 10.0 mi Variable 3.5 mph - N/A   Partly Cloudy
2:53 PM 88.0 °F 92.9 °F 70.0 °F 55% 29.95 in 10.0 mi SSE 5.8 mph - N/A   Mostly Cloudy
3:53 PM 87.1 °F 93.6 °F 72.0 °F 61% 29.94 in 10.0 mi NE 10.4 mph - N/A   Mostly Cloudy
4:53 PM 89.1 °F 96.0 °F 72.0 °F 57% 29.95 in 10.0 mi SE 5.8 mph - N/A   Mostly Cloudy
5:53 PM 88.0 °F 92.9 °F 70.0 °F 55% 29.95 in 10.0 mi East 3.5 mph - N/A   Clear
6:53 PM 86.0 °F 92.2 °F 72.0 °F 63% 29.96 in 10.0 mi Calm Calm - N/A   Clear
7:53 PM 82.0 °F 87.4 °F 73.0 °F 74% 29.97 in 10.0 mi ESE 3.5 mph - N/A   Clear
8:53 PM 79.0 °F - 73.0 °F 82% 30.00 in 10.0 mi Calm Calm - N/A   Clear
9:53 PM 79.0 °F - 73.9 °F 84% 30.02 in 10.0 mi SE 3.5 mph - N/A   Clear
10:53 PM 78.1 °F - 73.9 °F 87% 30.02 in 10.0 mi SE 3.5 mph - N/A   Clear
11:53 PM 77.0 °F - 73.0 °F 88% 30.01 in 10.0 mi Calm Calm - N/A   Clear